This demonstration page uses our WeatherBlox Daily Observations layout. Learn more.

Left ArrowRight Arrow

38.20091, -84.87328

Hourly Observations for July 21, 2020

Temp ( °F °C ) Dew Point ( °F °C ) Humidity (%) Winds ( mph kmh ) Pressure ( in mb ) Visibility ( mi km ) Precip ( " mm )
12:53 am 00:53 Clear 75 23.9 71 21.7 88 88 SSW 5 7 30.01 1016 10 16 0.00 0.00
1:53 am 01:53 Clear 74 23.3 70 21.1 88 88 Calm 30.01 1016 10 16 0.00 0.00
2:53 am 02:53 Clear 73 22.8 70 21.1 90 90 NNW 3 6 29.99 1016 10 16 0.00 0.00
3:53 am 03:53 Clear 72 22.2 69 20.6 91 91 Calm 29.98 1015 10 16 0.00 0.00
4:53 am 04:53 Clear 71 21.7 68 20 90 90 Calm 29.98 1015 10 16 0.00 0.00
5:53 am 05:53 Clear 70 21.1 67 19.4 90 90 Calm 29.99 1016 9 14 0.00 0.00
6:53 am 06:53 Sunny 70 21.1 68 20 93 93 Calm 30.03 1017 8 13 0.00 0.00
7:53 am 07:53 Sunny 74 23.3 71 21.7 91 91 Calm 30.05 1018 10 16 0.00 0.00
8:53 am 08:53 Sunny 77 25 72 22.2 85 85 WSW 5 7 30.06 1018 10 16 0.00 0.00
9:53 am 09:53 Sunny 81 27.2 72 22.2 74 74 VRB 3 6 30.06 1018 10 16 0.00 0.00
10:53 am 10:53 Sunny 83 28.3 71 21.7 67 67 S 7 11 30.06 1018 10 16 0.00 0.00
11:53 am 11:53 Sunny 86 30 70 21.1 59 59 SSW 7 11 30.06 1018 10 16 0.00 0.00
12:53 pm 12:53 Sunny 89 31.7 69 20.6 52 52 SSW 9 15 30.05 1018 10 16 0.00 0.00
1:53 pm 13:53 Sunny 90 32.2 70 21.1 52 52 WSW 9 15 30.04 1017 10 16 0.00 0.00
2:53 pm 14:53 Sunny 92 33.3 71 21.7 51 51 W 7 11 30.02 1017 10 16 0.00 0.00
3:53 pm 15:53 Sunny 92 33.3 70 21.1 49 49 WSW 6 9 30.01 1016 10 16 0.00 0.00
5:53 pm 17:53 Mostly Sunny 92 33.3 72 22.2 52 52 SW 7 11 29.97 1015 10 16 0.00 0.00
6:53 pm 18:53 Sunny 91 32.8 71 21.7 52 52 WSW 8 13 29.96 1015 10 16 0.00 0.00
7:53 pm 19:53 Sunny 88 31.1 72 22.2 59 59 SSW 6 9 29.97 1015 10 16 0.00 0.00
8:53 pm 20:53 Sunny 85 29.4 72 22.2 65 65 SW 3 6 29.98 1015 10 16 0.00 0.00
9:53 pm 21:53 Clear 81 27.2 72 22.2 74 74 SSW 5 7 30.00 1016 10 16 0.00 0.00
10:53 pm 22:53 Clear 81 27.2 73 22.8 77 77 WSW 3 6 30.00 1016 10 16 0.00 0.00
11:53 pm 23:53 Clear 81 27.2 73 22.8 77 77 Calm 30.00 1016 10 16 0.00 0.00

Powered by AerisWeather